Home   Weather   St. Pölten   Past weeks
Flag for Austria

Past Weather in St. Pölten, Lower Austria, Austria — Yesterday and Last 2 Weeks

Now
63 °F

Partly cloudy.


Feels Like: 63 °F
Forecast: 65 / 51 °F
Wind: 5 mph from Northeast

Location: Tulln Airport

Current Time: May 19, 2019 at 9:23:58 pm

Latest Report: May 19, 2019 at 8:50 pm


Visibility: 12 mi

Pressure: 29.62 "Hg

Humidity: 77%

Dew Point: 55 °F

Location of St. PöltenLocation

Past Weather in St. Pölten — Graph

°F

St. Pölten Temperature Yesterday

Maximum temperature yesterday: 68 °F (at 1:50 pm)
Minimum temperature yesterday: 54 °F (at 6:50 am)
Average temperature yesterday: 63 °F

High & Low Weather Summary for the Past Weeks

 TemperatureHumidityPressure
High72 °F (May 19, 3:50 pm)100% (May 11, 10:50 pm)30.45 "Hg (May 11, 10:50 pm)
Low36 °F (May 7, 5:50 am)40% (May 8, 3:50 pm)29.62 "Hg (May 8, 10:50 pm)
Average53 °F72%29.98 "Hg
* Reported May 4 7:50 pm — May 19 7:50 pm, St. Pölten. Weather by CustomWeather, © 2019

Note: Actual official high and low records may vary slightly from our data, if they occured in-between our weather recording intervals... More about our weather records

Advertising

St. Pölten Weather History for the Previous 24 Hours

Scroll right to see more
 ConditionsComfort  
Time TempWeatherWind HumidityBarometerVisibility
7:50 pm
Sun, May 19
64 °FBroken clouds.7 mph73%29.62 "Hg16 mi
6:50 pm66 °FPartly sunny.9 mph64%29.65 "Hg16 mi
5:50 pm70 °FPartly sunny.12 mph57%29.65 "Hg16 mi
4:50 pm72 °FBroken clouds.12 mph53%29.65 "Hg19 mi
3:50 pm72 °FPartly sunny.12 mph57%29.65 "Hg19 mi
2:50 pm70 °FBroken clouds.9 mph57%29.65 "Hg19 mi
1:50 pm68 °FPartly sunny.7 mph60%29.68 "Hg19 mi
12:50 pm66 °FPartly sunny.9 mph64%29.68 "Hg19 mi
11:50 am66 °FScattered clouds.16 mph68%29.68 "Hg16 mi
10:50 am68 °FScattered clouds.14 mph60%29.68 "Hg12 mi
9:50 am68 °FScattered clouds.12 mph64%29.68 "Hg12 mi
8:50 am64 °FBroken clouds.5 mph68%29.71 "Hg12 mi
7:50 am59 °FBroken clouds.2 mph77%29.71 "Hg12 mi
6:50 am57 °FBroken clouds.7 mph82%29.71 "Hg16 mi
5:50 am55 °FBroken clouds.9 mph82%29.71 "Hg12 mi
10:50 pm
Sat, May 18
59 °FClear.5 mph72%29.74 "Hg19 mi
9:50 pm61 °FClear.9 mph68%29.74 "Hg19 mi
Weather by CustomWeather, © 2019

See weather overview